SES-22 (52933 NORAD) Tracking and Keplerian Element Data

This shows tracking and keplerian element data for the satellite.

Feedback or suggestion? Click here.




ElementValue
Catalog52933
NameSES-22
Epoch Orbit90
Epoch Day268.06535397
Epoch Year2022
RAAN245.1668
Inclination0.0203
Eccentricity0.0002569
Argument of Perigee323.8979
Mean Anonmoly43.3456
Mean Motion1.00272484
Decay Rate8.8E-07
L11 52933U 22071A 22268.06535397 .00000088 00000+0 00000+0 0 9996
L22 52933 0.0203 245.1668 0002569 323.8979 43.3456 1.00272484 906

Live tracking and technical data element details for SES-22 (NORAD 52933). SES-22 can be tracked NOW for your location showing map with azimuth and elevation plus other details from your city location.

Track the satellite on the map from your city or location and see movement details for azimuth, elevation, latitude, longitude, range, height, and movement on the map or in text.







IsCatalogInMostPopularTable: catalog: 52933, numindb: 8
Update: records affected: 1



GetName: 52933 SES-22

Hit Count: updated at: Thu, 06 Oct 2022 04:49:36 GMT